Location: Peterborough
(44.3091°N, 78.3197°W)
Time: 22:46:30
(UTC-04:00)

Envisat - Pass Details

Date: 16 April 2026
Orbit: 761 x 762 km, 98.4° (Epoch: 15 May)

Event Time Altitude Azimuth Distance (km) Brightness Sun altitude
Rises 03:22:28 0° 19° (NNE) 3,234 7.3 -28.2°
Reaches altitude 10° 03:24:53 10° 26° (NNE) 2,303 6.4 -27.9°
Maximum altitude 03:29:43 43° 98° (E) 1,055 3.8 -27.4°
Enters shadow 03:30:32 40° 124° (SE) 1,109 3.8 -27.3°
